Preview of NWS' New Version of Forecast
This preview is not operational and should not be used for support decisions.

Regional Weather Roundup (RWR)

Issued by Jackson, KY (JKL)

                            
000
ASUS43 KJKL 160810
RWRJKL

EAST KENTUCKY HOURLY WEATHER ROUNDUP
NATIONAL WEATHER SERVICE JACKSON KY
400 AM EDT TUE OCT 16 2018

NOTE: "FAIR" INDICATES FEW OR NO CLOUDS BELOW 12,000 FEET WITH
NO SIGNIFICANT WEATHER AND/OR OBSTRUCTIONS TO VISIBILITY.

* THESE REPORTS ARE NOT UNDER NWS QUALITY CONTROL AND MAY NOT
  REPORT WEATHER SUCH AS PRECIPITATION AND FOG.

KYZ079-080-083-085-087-088-110-112-115-119-120-160900
...EASTERN KENTUCKY...
  
CITY           SKY/WX    TMP DP  RH WIND       PRES   REMARKS
JACKSON          N/A     47  45  93 CALM      30.23F                  
LONDON         CLOUDY    50  49  96 N6        30.23F                  
SOMERSET*      CLOUDY    46  46 100 NE9       30.25F                  
MONTICELLO*    CLOUDY    50  48  93 N14G20    30.25F                  
WILLIAMSBURG*  CLOUDY    50  50 100 CALM      30.22F                  
MIDDLESBORO*   CLOUDY    54  52  95 N7        30.22S                  
HARLAN APT*    CLOUDY    51  49  93 N3        30.21F                  
PIKE CO APT*   CLOUDY    48  48 100 N3        30.23S                  
BIG SANDY APT* CLOUDY    49  49 100 CALM      30.24R                  
MOREHEAD APT*    N/A     43  39  87 N5        30.27F                  
ASHLAND*         N/A     44  41  89 W3        30.27F                  
$$

KYZ035-036-041-042-044-050-067-078-099-160900
...CENTRAL KENTUCKY...
  
CITY           SKY/WX    TMP DP  RH WIND       PRES   REMARKS
MT STERLING*     N/A     43  41  93 N3        30.29F                  
FLEMING/MASON*   N/A     41  41  99 CALM      30.29S                  
DANVILLE*      CLOUDY    43  39  87 NE6       30.28F                  
LEXINGTON        N/A     43  39  86 N5        30.27F                  
FRANKFORT        N/A     43  41  93 N3        30.27F                  
LOUISVILLE     MOCLDY    44  39  82 N6        30.31R                  
LEBANON*         N/A     43  41  93 CALM      30.27F                  
GLASGOW*       CLOUDY    45  42  90 N8        30.28R                  
BOWLING GREEN  CLOUDY    46  42  86 NE6       30.29S                  
$$

KYZ091>093-OHZ055-061-077-WVZ005-015-034-035-042-160900
...SOUTHERN OHIO/WEST VIRGINIA...
  
CITY           SKY/WX    TMP DP  RH WIND       PRES   REMARKS
COVINGTON      MOCLDY    41  38  89 CALM      30.29R                  
COLUMBUS       MOCLDY    41  33  73 CALM      30.26F                  
DAYTON           N/A     35  33  92 W3        30.28S                  
WILMINGTON       N/A     39  36  89 W5        30.27S                  
HUNTINGTON       N/A     46  39  76 N7        30.26S                  
CHARLESTON     MOCLDY    48  46  93 NW5       30.23S                  
PINEVILLE*     CLOUDY    52  50  93 MISG      30.25F FOG              
BECKLEY        FOG       47  45  93 NE6       30.20F VSB 1/4          
BLUEFIELD      CLOUDY    48  48 100 VRB3      30.21R FOG              
LOGAN CO APT*  CLOUDY    50  48  93 CALM      30.22S                  
$$

VAZ002-007-008-TNZ017-027-036-066-071-160900
...SOUTHWEST VIRGINIA/EAST TENNESSEE...
  
CITY           SKY/WX    TMP DP  RH WIND       PRES   REMARKS
WISE*          FOG       50  50 100 N5        30.21F VSB 1/2          
ABINGDON*      CLOUDY    58  56  96 CALM      30.18S                  
BRISTOL        CLOUDY    57  56  96 VRB3      30.17F                  
MORRISTOWN*    CLOUDY    59  57  94 CALM      30.18R                  
SEVIERVILLE*   CLOUDY    59  57  94 CALM      30.17F                  
KNOXVILLE      CLOUDY    58  57  97 NE3       30.17S                  
LAFOLLETTE*    CLOUDY    55  52  88 CALM      30.23S                  
OAK RIDGE      CLOUDY    58  55  90 CALM      30.20                   
CROSSVILLE     CLOUDY    51  50  96 NE6       30.21F                  
NASHVILLE      CLOUDY    48  44  86 NW8       30.27S                  
$$

...KEY TO REMARKS...
VSB - VISIBILITY IN MILES
WCI - WIND CHILL INDEX
HX  - HEAT INDEX

$$